Tracking 25734 objects as of 28-May-2022
HD Live streaming from Space Station
objects crossing your sky now

PERSEUS M2

Track PERSEUS M2 now!
10-day predictions
PERSEUS M2 is classified as:


NORAD ID: 40037
Int'l Code: 2014-033AD
Perigee: 603.6 km
Apogee: 624.9 km
Inclination: 97.9 °
Period: 96.8 minutes
Semi major axis: 6985 km
RCS: Unknown
Launch date: June 19, 2014
Source: Commonwealth of Independent States (former USSR) (CIS)
Launch site: Orenburg, Russia (OREN)

Uplink (MHz):
Downlink (MHz): 400.190/400.221
Beacon (MHz):
Mode: 9600bps GFSK
Call sign: CQ
Status:

aabbcc
Your satellite tracking list
Your tracking list is empty




NASA's NSSDC Master Catalog

Two Line Element Set (TLE):
1 40037U 14033AD  22148.52418633  .00001022  00000-0  11991-3 0  9993
2 40037  97.8970  70.8586 0015205 138.7055 221.5314 14.87070277430662
Source of the keplerian elements: AFSPC